sat.trackr.live / text

‹ back to catalog

STARLINK-32695

NORAD 62866 · 2025-022N

PAYLOAD ACTIVE UNKNOWN

§ Identity

Operator
Country
US
Launch date
2025-02-01
Launch site
AFWTR
Launch vehicle
Mass (kg)
RCS (m²)

Purposes: comms

External: N2YO · Heavens-Above · Gunter

§ Orbital elements

Epoch: 2026-09-21T03:43:58.508256Z

Period
93.85 min
Inclination
53.1598°
Eccentricity
0.0001702
Mean motion
15.34399811 rev/d
Perigee alt
461.5 km
Apogee alt
463.9 km
Semi-major
6,840.8 km
B*
3.2539e-4
RAAN
296.9550°
Arg perigee
96.8080°
Mean anomaly
263.3116°
Rev number
9,189

§ Raw data

STARLINK-326951 62866U 25022N   26264.15553829  .00010633  00000+0  32539-3 0  99942 62866  53.1598 296.9550 0001702  96.8080 263.3116 15.34399811 91891

JSON: /api/v1/satellites/62866 · /tle

For live sub-satellite position, see the globe view (requires WebGL).

§ Visibility from observer

Set your observer location to see the next 7 days of passes ≥ 10°. The values pass through the URL so the page stays shareable.

No JS? Fill the form by hand. The geolocation button needs JavaScript.